Location: Devore Heights
(34.2372°N, 117.4156°W)
Time: 14:31:10
(UTC+00:00)

SR - All Passes

Search period start: 13 September 2024 00:00
Search period end: 23 September 2024 00:00
Orbit: 579 x 855 km, 66.7° (Epoch: 12 September)

Date Brightness Start Highest point End Pass type
(mag) Time Alt. Az. Time Alt. Az. Time Alt. Az.
13 Sep - 05:36:26 10° N 05:39:44 18° NE 05:43:11 10° E visible
13 Sep - 07:17:03 10° NW 07:21:40 47° WSW 07:26:39 10° S night (unlit)
13 Sep - 20:01:49 10° SSE 20:05:00 20° ESE 20:08:08 10° ENE daylight
13 Sep - 21:42:52 10° WSW 21:46:34 28° WNW 21:50:13 10° N daylight
14 Sep - 06:24:05 10° NNW 06:28:51 72° ENE 06:34:02 10° SSE visible
14 Sep - 08:09:06 10° W 08:10:11 11° WSW 08:11:16 10° WSW night (unlit)
14 Sep - 20:49:18 10° SSW 20:53:36 74° WNW 20:57:50 10° NNE daylight
15 Sep - 05:31:40 10° N 05:35:53 30° ENE 05:40:23 10° ESE visible
15 Sep - 07:13:30 10° NW 07:17:34 27° WSW 07:21:53 10° SSW night (unlit)
15 Sep - 19:56:48 10° S 20:00:48 38° ESE 20:04:44 10° NE daylight
15 Sep - 21:40:02 10° W 21:42:42 16° NW 21:45:20 10° NNW daylight
16 Sep - 04:40:08 10° NNE 04:42:42 14° NE 04:45:20 10° E visible
16 Sep - 06:20:01 10° NNW 06:24:47 64° WSW 06:29:58 10° SSE visible
16 Sep - 19:05:49 10° SE 19:08:09 14° ESE 19:10:28 10° ENE daylight
16 Sep - 20:45:33 10° SW 20:49:33 38° WNW 20:53:30 10° N daylight
17 Sep - 05:27:11 10° NNW 05:31:53 53° ENE 05:36:57 10° SE visible
17 Sep - 07:10:32 10° WNW 07:13:20 15° WSW 07:16:13 10° SW night (unlit)
17 Sep - 19:52:19 10° SSW 19:56:36 78° ESE 20:00:49 10° NNE daylight
18 Sep - 04:34:56 10° N 04:38:48 24° ENE 04:42:53 10° ESE visible
18 Sep - 06:16:10 10° NW 06:20:37 36° WSW 06:25:23 10° S visible
18 Sep - 19:00:11 10° SSE 19:03:49 27° ESE 19:07:25 10° NE daylight
18 Sep - 20:42:16 10° WSW 20:45:32 21° NW 20:48:47 10° N daylight
19 Sep - 03:44:15 10° NE 03:45:29 11° NE 03:46:43 10° ENE visible
19 Sep - 05:22:54 10° NNW 05:27:46 87° WSW 05:33:01 10° SSE visible
19 Sep - 19:48:14 10° SW 19:52:25 53° WNW 19:56:34 10° NNE daylight
20 Sep - 04:30:14 10° N 04:34:46 40° ENE 04:39:37 10° SE visible
20 Sep - 06:12:41 10° WNW 06:16:20 21° WSW 06:20:08 10° SSW visible
20 Sep - 18:55:20 10° S 18:59:29 53° ESE 19:03:37 10° NE daylight
20 Sep - 20:39:50 10° WNW 20:41:34 12° NW 20:43:19 10° NNW daylight
21 Sep - 03:38:13 10° N 03:41:34 18° NE 03:45:04 10° E visible
21 Sep - 05:18:49 10° NW 05:23:31 49° WSW 05:28:35 10° S visible
21 Sep - 18:03:39 10° SSE 18:06:44 20° ESE 18:09:47 10° ENE daylight
21 Sep - 19:44:34 10° WSW 19:48:16 28° WNW 19:51:57 10° N daylight
22 Sep - 04:25:44 10° NNW 04:30:35 70° ENE 04:35:50 10° SSE visible
22 Sep - 06:10:22 10° W 06:11:54 11° WSW 06:13:28 10° WSW visible
22 Sep - 18:50:56 10° SSW 18:55:11 77° WNW 18:59:25 10° NNE daylight
